Regional Weather Roundup
Issued by NWS Upton, NY

Current Version | Previous Version | Text Only | Print | Product List | Glossary Off
Versions: 1 2 3 4 5 6 7 8 9 10 11 12 13 14 15 16 17 18 19 20 21 22 23 24 25 26 27

000
ASUS41 KOKX 261205
RWROKX

REGIONAL WEATHER ROUNDUP
NATIONAL WEATHER SERVICE NEW YORK NY
800 AM EDT THU MAY 26 2016

NOTE: "FAIR" INDICATES FEW OR NO CLOUDS BELOW 12,000 FEET WITH NO
SIGNIFICANT WEATHER AND/OR OBSTRUCTIONS TO VISIBILITY.

NYZ071-072-176-178-NJZ106-104-261300-
NEW YORK CITY METRO AREA


CITY           SKY/WX    TMP DP  RH WIND       PRES   REMARKS
CENTRAL PARK   SUNNY     74  51  44 VRB3      30.14R
LAGUARDIA APRT PTSUNNY   77  58  51 CALM      30.11R
KENNEDY INTL   MOSUNNY   72  55  55 SW3       30.12R
NEWARK/LIBERTY CLOUDY    74  53  48 CALM      30.11S
BRNX BOT. GARD   N/A     75  54  46 CALM      30.14R
TETERBORO      SUNNY     72  52  49 CALM      30.10R
$$

NYZ177-179-078>081-261300-
LONG ISLAND NEW YORK

CITY           SKY/WX    TMP DP  RH WIND       PRES   REMARKS
FARMINGDALE    SUNNY     71  56  58 CALM      30.12R
ISLIP          PTSUNNY   71  58  63 SW5       30.11R
SHIRLEY        SUNNY     69  59  70 W5        30.12R
RIVERHEAD        N/A     70  59  68 CALM      30.11R
WESTHAMPTON    NOT AVBL
EAST HAMPTON   FAIR      66  58  73 CALM      30.10R
MONTAUK POINT    N/A     69  56  62 W3        30.11S
$$

NYZ052-065-067-261300-
HUDSON VALLEY

CITY           SKY/WX    TMP DP  RH WIND       PRES   REMARKS
WHITE PLAINS   SUNNY     70  56  61 CALM      30.11S
NEWBURGH       NOT AVBL
MONTGOMERY     MOSUNNY   66  57  72 SW3       30.12R
POUGHKEEPSIE   SUNNY     66  58  75 CALM      30.11R
ALBANY         MOSUNNY   65  56  72 N5        30.14R
$$

NJZ001-105-106-008-010-013-015-019>022-104-261300-
NEW JERSEY

CITY           SKY/WX    TMP DP  RH WIND       PRES   REMARKS
NEWARK/LIBERTY CLOUDY    74  53  48 CALM      30.11S
TETERBORO      SUNNY     72  52  49 CALM      30.10R
CALDWELL       SUNNY     69  54  58 CALM      30.12R
MORRISTOWN     PTSUNNY   66  57  72 CALM      30.12S
SOMERVILLE     SUNNY     65  57  75 CALM      30.11R
SUSSEX         SUNNY     63  55  75 CALM      30.13S
ANDOVER          N/A     65  59  81 CALM      30.14R
TRENTON        SUNNY     68  57  68 SW5       30.13
MILLVILLE      SUNNY     68  61  78 CALM      30.15R
ATLANTIC CITY  SUNNY     71  59  65 SW5       30.15R
WRIGHTSTOWN    SUNNY     71  58  64 W6        30.12R
TOMS RIVER     SUNNY     72  55  56 W7        30.14S
BELMAR         CLOUDY    69  57  65 SW6       30.14R
$$

PAZ047>061-062-071-261300-
EASTERN PENNSYLVANIA

CITY           SKY/WX    TMP DP  RH WIND       PRES   REMARKS
PHILADELPHIA   MOSUNNY   68  57  68 CALM      30.14R
ALLENTOWN      PTSUNNY   67  56  67 CALM      30.13S
SCRANTON       CLOUDY    65  53  65 E3        30.14S
$$

CTZ002-004>006-009-010-012-RIZ004-006-007-MAZ004-011-015-261300-
SOUTHERN NEW ENGLAND
 IN CT

CITY           SKY/WX    TMP DP  RH WIND       PRES   REMARKS
BRADLEY INTL   PTSUNNY   70  57  63 CALM      30.11R
HARTFORD       PTSUNNY   71  59  65 CALM      30.11R
DANBURY        SUNNY     64  57  78 CALM      30.13S
WTRBRY/OXFORD  PTSUNNY   70  55  60 CALM      30.13S
BRIDGEPORT     SUNNY     70  57  63 CALM      30.11R
MERIDEN        CLOUDY    69  59  70 CALM      30.11R
NEW HAVEN      PTSUNNY   64  57  78 CALM      30.11R
CHESTER        FAIR      75  59  57 CALM      30.12R
GROTON         MOSUNNY   64  59  83 S5        30.10R
WILLIMANTIC    MOSUNNY   67  56  67 CALM      30.11S

 IN RI

CITY           SKY/WX    TMP DP  RH WIND       PRES   REMARKS
PROVIDENCE     PTSUNNY   73  57  57 CALM      30.10R
BLOCK ISLAND   MOSUNNY   68  55  63 W5        30.11R
WESTERLY       CLOUDY    71  57  61 NE3       30.10S

 IN MA

CITY           SKY/WX    TMP DP  RH WIND       PRES   REMARKS
BOSTON         MOSUNNY   74  56  53 VRB6      30.10R
WORCESTER      SUNNY     71  53  52 W8        30.13R
WESTFIELD      SUNNY     67  58  72 CALM      30.12R
PROVINCETOWN   SUNNY     70  57  63 W6        30.11R
NANTUCKET      SUNNY     67  56  67 SW3       30.10R
$$

ANZ330-335-338-340-345-350-353-355-261300-
COASTAL MARINE OBSERVATIONS


STATION/POSITION TIME  SKY/WX   TEMP    WIND        PRES    VSBY  WAVE
                                AIR SEA DIR/SP/G                  HT/PER
                 (UTC)          (F)     (DEG/KT/KT) (MB)    (MI)  (FT/S)
NY HARB ENTRANCE 1050            63 60  220/  6/  6 1019.3          2/ 9
20S FIRE ISLAND  1050            60 57  230/  8/  8 1019.4          3/ 6
GREAT SOUTH BAY  1100            66 65  240/  8/ 12   N/A
23 SSW MONTAUK P 1150            58 55  240/  8/ 10 1019.3          2/ 6
15 E BARNEGAT LI NOT AVBL
HUDSON CANYON    1050            59 55              1020.4          3/11
KINGS POINT      1100            68 58              1019.1
EXECUTION ROCKS  NOT AVBL
CENTRAL LI SOUND 1100            61     280/  2/  4   N/A           0
EASTERN LI SOUND 1100            64 53   CALM  /  2   N/A
ROBBINS REEF     1100            69     270/  9/ 10 1018.7
$$


>>>>>>>>>>>>>>>>>>>>>>>>>>>> KEY <<<<<<<<<<<<<<<<<<<<<<<<<<<
>                                                          <
>     SKY/WX - SKY CONDITION/PRESENT WEATHER               <
>     TMP    - TEMPERATURE IN FAHRENHEIT                   <
>     DP     - DEWPOINT IN FAHRENHEIT                      <
>     RH     - RELATIVE HUMIDITY IN PERCENT                <
>     WIND   - DIRECTION AND SPEED IN MPH                  <
>     PRES   - MEAN SEA LEVEL PRESSURE IN INCHES OF HG     <
>     WCI    - WIND CHILL INDEX                            <
>     VSB    - VISIBILITY IN MILES                         <
>     HX     - HEAT INDEX                                  <
>     TC     - TEMPERATURE IN CELSIUS                      <
>     VRB    - VARIABLE WIND DIRECTION                     <
>                                                          <
>>>>>>>>>>>>>>>>>>>>>>>>>>>> KEY <<<<<<<<<<<<<<<<<<<<<<<<<<<






USA.gov is the U.S. government's official web portal to all federal, state and local government web resources and services.